Time,TemperatureF,DewpointF,PressureIn,WindDirection,WindDirectionDegrees,WindSpeedMPH,WindSpeedGustMPH,Humidity,HourlyPrecipIn,Conditions,Clouds,dailyrainin,SoftwareType,DateUTC
2013-08-07 00:05:00,53.3,52.0,30.18,South,169,0.0,0.0,94,0.00,,,0.00,weatherlink.com 1.10,2013-08-07 04:05:00,
2013-08-07 00:20:00,52.6,51.0,30.18,South,169,0.0,0.0,94,0.00,,,0.00,weatherlink.com 1.10,2013-08-07 04:20:00,
2013-08-07 00:35:00,52.3,51.0,30.18,South,169,0.0,0.0,95,0.00,,,0.00,weatherlink.com 1.10,2013-08-07 04:35:00,
2013-08-07 00:50:00,51.7,50.0,30.18,South,169,0.0,0.0,94,0.00,,,0.00,weatherlink.com 1.10,2013-08-07 04:50:00,
2013-08-07 01:05:00,51.5,50.0,30.18,South,169,0.0,0.0,95,0.00,,,0.00,weatherlink.com 1.10,2013-08-07 05:05:00,
2013-08-07 01:20:00,51.0,50.0,30.18,South,169,0.0,0.0,95,0.00,,,0.00,weatherlink.com 1.10,2013-08-07 05:20:00,
2013-08-07 01:35:00,51.5,50.0,30.18,South,169,0.0,0.0,96,0.00,,,0.00,weatherlink.com 1.10,2013-08-07 05:35:00,
2013-08-07 01:50:00,51.4,50.0,30.18,South,169,0.0,0.0,95,0.00,,,0.00,weatherlink.com 1.10,2013-08-07 05:50:00,
2013-08-07 02:05:00,51.1,50.0,30.18,South,169,0.0,0.0,95,0.00,,,0.00,weatherlink.com 1.10,2013-08-07 06:05:00,
2013-08-07 02:20:00,50.7,49.0,30.18,South,169,0.0,0.0,95,0.00,,,0.00,weatherlink.com 1.10,2013-08-07 06:20:00,
2013-08-07 02:35:00,50.3,49.0,30.18,South,169,0.0,0.0,95,0.00,,,0.00,weatherlink.com 1.10,2013-08-07 06:35:00,
2013-08-07 02:50:00,50.1,49.0,30.19,South,169,0.0,0.0,95,0.00,,,0.00,weatherlink.com 1.10,2013-08-07 06:50:00,
2013-08-07 03:05:00,49.9,49.0,30.19,South,169,0.0,0.0,95,0.00,,,0.00,weatherlink.com 1.10,2013-08-07 07:05:00,
2013-08-07 03:20:00,49.7,49.0,30.19,South,169,0.0,0.0,96,0.00,,,0.00,weatherlink.com 1.10,2013-08-07 07:20:00,
2013-08-07 03:35:00,49.5,48.0,30.20,South,169,0.0,0.0,96,0.00,,,0.00,weatherlink.com 1.10,2013-08-07 07:35:00,
2013-08-07 03:50:00,49.2,48.0,30.20,South,169,0.0,0.0,96,0.00,,,0.00,weatherlink.com 1.10,2013-08-07 07:50:00,
2013-08-07 04:05:00,49.0,48.0,30.20,South,169,0.0,0.0,96,0.00,,,0.00,weatherlink.com 1.10,2013-08-07 08:05:00,
2013-08-07 04:20:00,49.0,48.0,30.20,South,169,0.0,0.0,96,0.00,,,0.00,weatherlink.com 1.10,2013-08-07 08:20:00,
2013-08-07 04:35:00,49.2,48.0,30.20,South,169,0.0,0.0,96,0.00,,,0.00,weatherlink.com 1.10,2013-08-07 08:35:00,
2013-08-07 04:50:00,49.1,48.0,30.20,South,169,0.0,0.0,96,0.00,,,0.00,weatherlink.com 1.10,2013-08-07 08:50:00,
2013-08-07 05:05:00,49.1,48.0,30.21,South,169,0.0,0.0,96,0.00,,,0.00,weatherlink.com 1.10,2013-08-07 09:05:00,
2013-08-07 05:20:00,49.0,48.0,30.21,South,169,0.0,0.0,96,0.00,,,0.00,weatherlink.com 1.10,2013-08-07 09:20:00,
2013-08-07 05:35:00,48.7,48.0,30.21,South,169,0.0,0.0,96,0.00,,,0.00,weatherlink.com 1.10,2013-08-07 09:35:00,
2013-08-07 05:50:00,48.9,48.0,30.21,South,169,0.0,0.0,96,0.00,,,0.00,weatherlink.com 1.10,2013-08-07 09:50:00,
2013-08-07 06:05:00,49.0,48.0,30.21,South,169,0.0,0.0,96,0.00,,,0.00,weatherlink.com 1.10,2013-08-07 10:05:00,
2013-08-07 06:20:00,49.1,48.0,30.21,South,169,0.0,0.0,96,0.00,,,0.00,weatherlink.com 1.10,2013-08-07 10:20:00,
2013-08-07 06:35:00,49.9,49.0,30.21,South,169,0.0,0.0,96,0.00,,,0.00,weatherlink.com 1.10,2013-08-07 10:35:00,
2013-08-07 06:50:00,51.4,51.0,30.21,South,169,0.0,0.0,97,0.00,,,0.00,weatherlink.com 1.10,2013-08-07 10:50:00,
2013-08-07 07:05:00,53.5,53.0,30.21,South,169,0.0,0.0,97,0.00,,,0.00,weatherlink.com 1.10,2013-08-07 11:05:00,
2013-08-07 07:20:00,56.1,55.0,30.21,South,169,0.0,0.0,97,0.00,,,0.00,weatherlink.com 1.10,2013-08-07 11:20:00,
2013-08-07 07:35:00,59.2,58.0,30.21,South,169,0.0,0.0,97,0.00,,,0.00,weatherlink.com 1.10,2013-08-07 11:35:00,
2013-08-07 07:51:00,63.3,63.0,30.21,South,169,0.0,0.0,97,0.00,,,0.00,weatherlink.com 1.10,2013-08-07 11:51:00,
2013-08-07 08:06:00,65.7,65.0,30.21,South,169,0.0,1.0,97,0.00,,,0.00,weatherlink.com 1.10,2013-08-07 12:06:00,
2013-08-07 08:21:00,66.9,66.0,30.21,South,169,0.0,1.0,97,0.00,,,0.00,weatherlink.com 1.10,2013-08-07 12:21:00,
2013-08-07 08:36:00,67.3,66.0,30.21,SSE,152,0.0,2.0,96,0.00,,,0.00,weatherlink.com 1.10,2013-08-07 12:36:00,
2013-08-07 08:51:00,69.7,64.0,30.21,NNE,26,0.0,2.0,82,0.00,,,0.00,weatherlink.com 1.10,2013-08-07 12:51:00,
2013-08-07 09:06:00,72.0,64.0,30.21,South,187,1.0,2.0,75,0.00,,,0.00,weatherlink.com 1.10,2013-08-07 13:06:00,
2013-08-07 09:21:00,73.0,60.0,30.21,NE,52,0.0,2.0,65,0.00,,,0.00,weatherlink.com 1.10,2013-08-07 13:21:00,
2013-08-07 09:36:00,74.7,59.0,30.21,NW,316,0.0,2.0,59,0.00,,,0.00,weatherlink.com 1.10,2013-08-07 13:36:00,
2013-08-07 09:51:00,74.3,60.0,30.21,South,172,0.0,3.0,61,0.00,,,0.00,weatherlink.com 1.10,2013-08-07 13:51:00,
2013-08-07 10:06:00,75.6,58.0,30.20,ENE,60,2.0,3.0,55,0.00,,,0.00,weatherlink.com 1.10,2013-08-07 14:06:00,
2013-08-07 10:21:00,76.5,61.0,30.20,SE,146,1.0,3.0,60,0.00,,,0.00,weatherlink.com 1.10,2013-08-07 14:21:00,
2013-08-07 10:36:00,76.7,64.0,30.21,SSW,195,1.0,5.0,64,0.00,,,0.00,weatherlink.com 1.10,2013-08-07 14:36:00,
2013-08-07 10:51:00,75.6,63.0,30.21,ESE,120,2.0,6.0,65,0.00,,,0.00,weatherlink.com 1.10,2013-08-07 14:51:00,
2013-08-07 11:06:00,74.2,63.0,30.21,SW,217,5.0,6.0,69,0.00,,,0.00,weatherlink.com 1.10,2013-08-07 15:06:00,
2013-08-07 11:21:00,73.8,62.0,30.21,SSW,205,0.0,5.0,66,0.00,,,0.00,weatherlink.com 1.10,2013-08-07 15:21:00,
2013-08-07 11:51:00,75.3,57.0,30.21,East,90,2.0,4.0,53,0.00,,,0.00,weatherlink.com 1.10,2013-08-07 15:51:00,
2013-08-07 12:06:00,76.2,59.0,30.20,ENE,66,2.0,4.0,56,0.00,,,0.00,weatherlink.com 1.10,2013-08-07 16:06:00,
2013-08-07 12:21:00,76.4,53.0,30.20,SSE,160,1.0,6.0,45,0.00,,,0.00,weatherlink.com 1.10,2013-08-07 16:21:00,
2013-08-07 12:36:00,76.8,57.0,30.20,ESE,106,0.0,6.0,50,0.00,,,0.00,weatherlink.com 1.10,2013-08-07 16:36:00,
2013-08-07 12:51:00,77.1,58.0,30.20,SW,226,3.0,5.0,51,0.00,,,0.00,weatherlink.com 1.10,2013-08-07 16:51:00,
2013-08-07 13:06:00,75.9,60.0,30.20,SE,128,2.0,9.0,58,0.00,,,0.00,weatherlink.com 1.10,2013-08-07 17:06:00,
2013-08-07 13:21:00,75.1,59.0,30.21,SSW,207,1.0,8.0,58,0.00,,,0.00,weatherlink.com 1.10,2013-08-07 17:21:00,
2013-08-07 13:36:00,75.5,59.0,30.21,SSE,163,3.0,6.0,56,0.00,,,0.00,weatherlink.com 1.10,2013-08-07 17:36:00,
2013-08-07 13:51:00,75.3,56.0,30.21,SSW,201,5.0,9.0,52,0.00,,,0.00,weatherlink.com 1.10,2013-08-07 17:51:00,
2013-08-07 14:06:00,75.1,55.0,30.21,ESE,112,1.0,5.0,49,0.00,,,0.00,weatherlink.com 1.10,2013-08-07 18:06:00,
2013-08-07 14:21:00,74.9,56.0,30.21,ESE,122,0.0,7.0,52,0.00,,,0.00,weatherlink.com 1.10,2013-08-07 18:21:00,
2013-08-07 14:36:00,74.9,56.0,30.21,SW,224,2.0,7.0,52,0.00,,,0.00,weatherlink.com 1.10,2013-08-07 18:36:00,
2013-08-07 14:51:00,74.8,58.0,30.21,SW,219,4.0,6.0,57,0.00,,,0.00,weatherlink.com 1.10,2013-08-07 18:51:00,
2013-08-07 15:06:00,75.0,57.0,30.21,SE,129,3.0,6.0,54,0.00,,,0.00,weatherlink.com 1.10,2013-08-07 19:06:00,
2013-08-07 15:21:00,75.0,58.0,30.20,SE,129,1.0,6.0,55,0.00,,,0.00,weatherlink.com 1.10,2013-08-07 19:21:00,
2013-08-07 15:36:00,75.2,59.0,30.20,SW,222,3.0,5.0,57,0.00,,,0.00,weatherlink.com 1.10,2013-08-07 19:36:00,
2013-08-07 15:51:00,74.9,56.0,30.20,SSW,195,2.0,5.0,53,0.00,,,0.00,weatherlink.com 1.10,2013-08-07 19:51:00,
2013-08-07 16:06:00,74.6,56.0,30.20,ESE,103,1.0,5.0,52,0.00,,,0.00,weatherlink.com 1.10,2013-08-07 20:06:00,
2013-08-07 16:21:00,74.4,57.0,30.20,South,187,2.0,5.0,54,0.00,,,0.00,weatherlink.com 1.10,2013-08-07 20:21:00,
2013-08-07 16:36:00,74.2,55.0,30.19,SE,130,2.0,5.0,52,0.00,,,0.00,weatherlink.com 1.10,2013-08-07 20:36:00,
2013-08-07 16:51:00,74.2,56.0,30.19,SSW,198,1.0,5.0,54,0.00,,,0.00,weatherlink.com 1.10,2013-08-07 20:51:00,
2013-08-07 17:07:00,73.9,59.0,30.19,South,181,1.0,3.0,60,0.00,,,0.00,weatherlink.com 1.10,2013-08-07 21:07:00,
2013-08-07 17:22:00,73.6,56.0,30.19,South,171,0.0,6.0,55,0.00,,,0.00,weatherlink.com 1.10,2013-08-07 21:22:00,
2013-08-07 17:37:00,72.8,56.0,30.18,SE,141,1.0,4.0,55,0.00,,,0.00,weatherlink.com 1.10,2013-08-07 21:37:00,
2013-08-07 17:52:00,71.8,56.0,30.18,SSW,200,1.0,5.0,58,0.00,,,0.00,weatherlink.com 1.10,2013-08-07 21:52:00,
2013-08-07 18:07:00,70.9,58.0,30.18,ESE,123,0.0,4.0,63,0.00,,,0.00,weatherlink.com 1.10,2013-08-07 22:07:00,
2013-08-07 18:22:00,70.0,57.0,30.18,SSE,150,1.0,4.0,63,0.00,,,0.00,weatherlink.com 1.10,2013-08-07 22:22:00,
2013-08-07 18:37:00,68.8,58.0,30.18,SE,146,0.0,2.0,68,0.00,,,0.00,weatherlink.com 1.10,2013-08-07 22:37:00,
2013-08-07 18:52:00,68.9,58.0,30.18,SSE,147,1.0,1.0,69,0.00,,,0.00,weatherlink.com 1.10,2013-08-07 22:52:00,
2013-08-07 19:07:00,68.5,58.0,30.17,SSE,164,0.0,3.0,70,0.00,,,0.00,weatherlink.com 1.10,2013-08-07 23:07:00,
2013-08-07 19:22:00,67.5,58.0,30.17,SSE,166,0.0,2.0,72,0.00,,,0.00,weatherlink.com 1.10,2013-08-07 23:22:00,
2013-08-07 19:37:00,66.2,58.0,30.17,SSE,166,0.0,0.0,76,0.00,,,0.00,weatherlink.com 1.10,2013-08-07 23:37:00,
2013-08-07 19:52:00,63.8,58.0,30.17,South,169,0.0,2.0,81,0.00,,,0.00,weatherlink.com 1.10,2013-08-07 23:52:00,
2013-08-07 20:07:00,62.3,57.0,30.18,South,169,0.0,0.0,82,0.00,,,0.00,weatherlink.com 1.10,2013-08-08 00:07:00,
2013-08-07 20:22:00,61.2,57.0,30.17,South,169,0.0,0.0,85,0.00,,,0.00,weatherlink.com 1.10,2013-08-08 00:22:00,
2013-08-07 20:37:00,60.0,56.0,30.18,South,169,0.0,0.0,87,0.00,,,0.00,weatherlink.com 1.10,2013-08-08 00:37:00,
2013-08-07 20:52:00,59.1,56.0,30.18,South,169,0.0,0.0,88,0.00,,,0.00,weatherlink.com 1.10,2013-08-08 00:52:00,
2013-08-07 21:07:00,58.2,55.0,30.18,South,169,0.0,0.0,90,0.00,,,0.00,weatherlink.com 1.10,2013-08-08 01:07:00,
2013-08-07 21:22:00,57.5,55.0,30.18,South,169,0.0,0.0,90,0.00,,,0.00,weatherlink.com 1.10,2013-08-08 01:22:00,
2013-08-07 21:37:00,56.9,54.0,30.18,South,169,0.0,0.0,91,0.00,,,0.00,weatherlink.com 1.10,2013-08-08 01:37:00,
2013-08-07 21:52:00,56.5,54.0,30.18,South,169,0.0,0.0,92,0.00,,,0.00,weatherlink.com 1.10,2013-08-08 01:52:00,
2013-08-07 22:07:00,56.0,54.0,30.18,South,169,0.0,1.0,92,0.00,,,0.00,weatherlink.com 1.10,2013-08-08 02:07:00,
2013-08-07 22:22:00,55.7,54.0,30.17,South,169,0.0,0.0,93,0.00,,,0.00,weatherlink.com 1.10,2013-08-08 02:22:00,
2013-08-07 22:37:00,55.6,54.0,30.18,South,169,0.0,1.0,94,0.00,,,0.00,weatherlink.com 1.10,2013-08-08 02:37:00,
2013-08-07 22:52:00,55.4,54.0,30.18,South,169,0.0,0.0,94,0.00,,,0.00,weatherlink.com 1.10,2013-08-08 02:52:00,
2013-08-07 23:07:00,55.3,54.0,30.17,South,169,0.0,0.0,94,0.00,,,0.00,weatherlink.com 1.10,2013-08-08 03:07:00,
2013-08-07 23:22:00,55.3,54.0,30.17,South,169,0.0,1.0,94,0.00,,,0.00,weatherlink.com 1.10,2013-08-08 03:22:00,
2013-08-07 23:37:00,55.3,54.0,30.17,South,169,0.0,0.0,94,0.00,,,0.00,weatherlink.com 1.10,2013-08-08 03:37:00,
2013-08-07 23:52:00,55.3,54.0,30.18,South,169,0.0,0.0,94,0.00,,,0.00,weatherlink.com 1.10,2013-08-08 03:52:00,